Regional Weather Roundup
Issued by NWS Green Bay, WI

Home | Current Version | Previous Version | Text Only | Print | Product List | Glossary On
Versions: 1 2 3 4 5 6 7 8 9 10 11 12 13 14 15 16 17 18 19 20 21 22 23 24 25 26 27 28 29 30 31 32 33 34 35 36 37 38 39 40 41 42 43 44 45 46 47 48 49 50
000
ASUS43 KGRB 060211
RWRGRB

NORTH-CENTRAL AND NORTHEAST WISCONSIN REGIONAL WEATHER ROUNDUP
NATIONAL WEATHER SERVICE GREEN BAY WI
900 PM CDT SUN JUL 05 2015

WIZ005-009-010>012-018-019-060300-
NORTH CENTRAL WISCONSIN

CITY           SKY/WX    TMP DP  RH WIND       PRES   REMARKS
IRONWOOD       PTCLDY    75  63  64 S13G21    29.78F
MANITOWISH WTR MOCLDY    73  64  73 S7        29.88F
ARBOR VITAE    MOCLDY    76  65  68 S10       29.89F
EAGLE RIVER    PTCLDY    73  61  64 S7        29.91F
LAND O LAKES   PTCLDY    74  61  65 S8        29.91F
RHINELANDER    PTCLDY    74  61  63 S8        29.93F
PHILLIPS       CLEAR     74  64  72 S8        29.88F
ANTIGO         CLEAR     67  63  85 S8        29.95S
TOMAHAWK       PTCLDY    69  63  79 CALM      29.92F
MERRILL        PTCLDY    74  64  69 S7        29.93S
$$

WIZ013-073-060300-
NORTHEAST WISCONSIN

CITY           SKY/WX    TMP DP  RH WIND       PRES   REMARKS
IRON MOUNTAIN  PTCLDY    73  61  65 S6        29.92F
MARINETTE      CLEAR     72  59  64 S10       29.95R
OCONTO         CLEAR     72  65  79 S8        29.95R
$$

WIZ017-030-035>037-045-060300-
CENTRAL WISCONSIN

CITY           SKY/WX    TMP DP  RH WIND       PRES   REMARKS
MEDFORD        PTCLDY    72  64  75 S8        29.91F
WAUSAU         CLEAR     76  63  64 S8        29.92S
MOSINEE        CLEAR     72  64  78 S8        29.95F
MARSHFIELD     PTCLDY    74  62  66 S10       29.93S
WISC RAPIDS    PTCLDY    75  62  64 S5        29.95F
STEVENS POINT  CLEAR     73  62  69 S7        29.95S
WAUPACA        CLEAR     74  64  69 SE7       29.95F
SHAWANO        CLEAR     75  64  67 S5        29.94F
CLINTONVILLE   CLEAR     73  63  68 S6        29.94F
$$

WIZ038-039-048-051-060300-
FOX VALLEY

CITY           SKY/WX    TMP DP  RH WIND       PRES   REMARKS
NWS GREEN BAY  CLEAR     73  63  70 S9        29.96S
APPLETON       PTCLDY    73  61  64 S9        29.97S
OSHKOSH        CLEAR     74  63  68 SW5       29.98R
FOND DU LAC    CLEAR     74  63  68 S8        29.97F
$$

WIZ022-050-052-060300-
EAST CENTRAL WISCONSIN

CITY           SKY/WX    TMP DP  RH WIND       PRES   REMARKS
STURGEON BAY   CLEAR     68  57  68 S12       30.00R
MANITOWOC      CLEAR     68  60  75 MISG      29.99S
SHEBOYGAN      CLEAR     70  59  68 S9        29.99F
$$

LMZ563-521-522-541>543-060300-
LAKESHORE

STATION/POSITION TIME  TEMP    WIND        PRES    VSBY  WAVE
                       AIR SEA DIR/SP/G                  HT/PER
                 (UTC) (F)     (DEG/KT/KT) (MB)    (MI)  (FT/S)
SHEBOYGAN LKSHOR 0200   63     170/ 15/ 16 1015.4F
KEWAUNEE LKSHORE 0100   65     180/ 12/ 13 1014.9F
ALGOMA MARINA    0111          210/ 12/ 13   N/A
NORTHPORT PIER   0100   68     160/  6/ 12 1014.6F
N MID LAKE BUOY  0150   58 48  200/ 14/ 16 1014.9F         2/ 4
S GREEN BAY BUOY 0100   73 70  170/ 16/ 19 1015.7F
SISTER BAY LKSHO 0114   70     160/ 15/ 22   N/A
CHAMBERS ISLAND  0100   72     150/  6/ 13 1014.2S
MENOMINEE LKSHOR 0100   73     170/  8/ 13 1014.8S
$$


USA.gov is the U.S. government's official web portal to all federal, state and local government web resources and services.